C/2017 K4 ( ATLAS )

Japanese version
Home page
Updated on October 9, 2017

---------------------------------------------------------------------

* Profile

Discovery Date May 26, 2017
Magnitude 17.0 mag
Discoverer Asteroid Terrestrial-impact Last Alert System (ATLAS) Team

* Pictures

* Orbital Elements

Epoch 2018 Jan. 2.0 TT = JDT 2458120.5
T 2018 Jan. 8.03079 TT                                  MPCW
q   2.6481373            (2000.0)            P               Q
n   0.00662107     Peri.   15.10605     +0.68511463     +0.68372729
a  28.0877792      Node   298.89833     -0.69454573     +0.50915914
e   0.9057192      Incl.   16.67873     -0.21960004     +0.52275613
P 149
From 218 observations 2017 May 26-Sept. 18, mean residual 0".4.

* Finding Charts

* Magnitudes Graph

        m1 = 9.0 + 5 log d + 10.0 log r

---------------------------------------------------------------------

The orbital elements are published on M.P.E.C. 2017-T14.
The charts are made with StellaNavigator Ver.10 (AstroArts).
The magnitudes graphs are made with Comet for Windows.

---------------------------------------------------------------------

Copyright(C) Seiichi Yoshida (comet@aerith.net). All rights reserved.